Date,TemperatureHighF,TemperatureAvgF,TemperatureLowF,DewpointHighF,DewpointAvgF,DewpointLowF,HumidityHigh,HumidityAvg,HumidityLow,PressureMaxIn,PressureMinIn,WindSpeedMaxMPH,WindSpeedAvgMPH,GustSpeedMaxMPH,PrecipitationSumIn
2013-1-1,22.0,8.5,-8.0,18.0,5.1,-12.0,89,85,82,30.36,30.03,9,3,0,0.00
2013-1-2,27.0,15.6,6.0,23.0,12.3,2.0,91,86,82,30.25,29.95,9,4,0,0.00
2013-1-3,18.0,8.5,0.0,14.0,4.5,-4.0,89,84,78,30.36,30.10,7,3,0,0.00
2013-1-4,25.0,18.7,11.0,18.0,13.0,8.0,89,78,71,30.16,30.07,6,2,0,0.00
2013-1-5,17.0,9.4,4.0,14.0,5.9,1.0,90,86,76,30.20,29.96,10,4,0,0.00
2013-1-6,17.0,11.3,5.0,13.0,7.4,2.0,89,84,75,30.28,29.91,16,4,0,0.00
2013-1-7,36.0,27.2,17.0,27.0,20.7,13.0,86,77,67,29.98,29.86,13,4,0,0.00
2013-1-8,34.0,23.8,14.0,29.0,20.0,11.0,91,85,77,29.96,29.71,13,4,0,0.00
2013-1-9,33.0,27.3,23.0,29.0,21.1,18.0,86,77,67,30.32,29.92,17,7,0,0.00
2013-1-10,37.0,31.8,26.0,30.0,26.8,22.0,94,82,68,30.16,29.60,21,14,0,0.00
2013-1-11,33.0,29.7,14.0,32.0,28.5,10.0,96,95,90,29.61,29.36,17,6,0,0.00
2013-1-12,13.0,5.1,0.0,10.0,0.9,-4.0,89,82,75,30.19,29.44,15,7,0,0.00
2013-1-13,8.0,2.3,-3.0,4.0,-2.3,-8.0,92,81,75,30.33,30.17,6,2,0,0.00
2013-1-14,9.0,3.2,-3.0,3.0,-1.6,-7.0,84,80,73,30.48,30.32,7,2,0,0.00
2013-1-15,22.0,12.3,1.0,14.0,6.3,-3.0,86,77,63,30.32,29.74,11,5,0,0.00
2013-1-16,35.0,18.0,-2.0,32.0,13.5,-11.0,91,82,63,30.34,29.67,13,6,0,0.00
2013-1-17,17.0,7.8,-3.0,11.0,0.9,-12.0,79,73,63,30.47,30.24,9,2,0,0.00
2013-1-18,37.0,26.4,13.0,29.0,21.8,7.0,90,83,73,30.26,29.76,15,5,0,0.00
2013-1-19,36.0,17.9,-2.0,31.0,13.4,-7.0,92,82,72,30.37,29.70,21,10,0,0.00
2013-1-20,5.0,-1.0,-10.0,0.0,-6.7,-18.0,80,76,69,30.50,30.35,15,6,0,0.00
2013-1-21,-2.0,-8.7,-13.0,-9.0,-15.2,-20.0,78,72,68,30.48,30.40,14,6,0,0.00
2013-1-22,5.0,-4.3,-13.0,-2.0,-10.3,-18.0,78,74,64,30.49,30.30,4,0,0,0.00
2013-1-23,5.0,-1.2,-12.0,2.0,-7.1,-19.0,85,75,66,30.73,30.25,13,4,0,0.00
2013-1-24,11.0,-1.2,-12.0,5.0,-8.2,-18.0,75,72,68,30.76,30.17,20,9,0,0.00
2013-1-25,17.0,5.3,-3.0,12.0,-0.5,-8.0,82,76,71,30.40,30.03,17,7,0,0.00
2013-1-26,19.0,7.0,-4.0,11.0,1.0,-9.0,81,77,71,30.40,30.07,17,8,0,0.00
2013-1-27,31.0,25.7,19.0,28.0,21.1,12.0,93,83,73,30.08,29.80,12,6,0,0.00
2013-1-28,33.0,30.5,30.0,32.0,28.9,27.0,95,94,93,29.84,29.66,7,2,0,0.00
2013-1-29,29.0,22.1,15.0,27.0,20.2,12.0,95,92,86,29.90,29.62,9,6,0,0.00
2013-1-30,15.0,6.2,-4.0,12.0,2.2,-8.0,86,84,81,29.94,29.85,15,10,0,0.00
2013-1-31,-4.0,-9.8,-14.0,-8.0,-14.9,-19.0,81,77,72,30.44,29.94,18,12,0,0.00
2013-2-1,4.0,-6.0,-15.0,0.0,-11.0,-21.0,84,78,70,30.43,30.14,10,3,0,0.00
2013-2-2,10.0,2.4,-6.0,7.0,-1.5,-10.0,87,84,78,30.28,30.04,10,3,0,0.00
2013-2-3,12.0,8.1,3.0,7.0,3.9,-1.0,86,82,75,30.19,30.02,11,1,0,0.00
2013-2-4,17.0,7.1,-3.0,15.0,3.2,-7.0,91,84,76,30.14,29.72,14,4,0,0.00
2013-2-5,30.0,14.8,5.0,28.0,11.6,1.0,94,87,81,30.12,29.70,9,5,0,0.00
2013-2-6,27.0,18.0,7.0,23.0,14.0,3.0,88,84,81,30.12,29.90,15,4,0,0.00
2013-2-7,26.0,20.9,9.0,21.0,17.2,6.0,90,86,80,30.35,30.07,6,2,0,0.00
2013-2-8,24.0,16.3,7.0,21.0,13.0,4.0,90,87,78,30.37,30.10,20,9,0,0.00
2013-2-9,30.0,26.8,22.0,28.0,24.6,20.0,94,92,89,30.10,29.84,17,11,0,0.00
2013-2-10,30.0,26.4,24.0,28.0,25.2,21.0,100,94,93,29.84,29.39,15,6,0,0.00
2013-2-11,23.0,19.2,14.0,21.0,16.6,11.0,100,90,83,30.08,29.54,14,8,0,0.00
2013-2-12,26.0,20.0,13.0,20.0,15.8,10.0,89,83,74,30.05,29.84,9,3,0,0.00
2013-2-13,33.0,25.6,15.0,28.0,22.4,12.0,94,88,74,29.84,29.59,9,2,0,0.00
2013-2-14,25.0,12.6,0.0,23.0,9.7,-3.0,94,88,82,30.32,29.72,10,5,0,0.00
2013-2-15,10.0,3.2,-3.0,7.0,-0.1,-7.0,89,86,81,30.45,30.32,7,1,0,0.00
2013-2-16,13.0,8.0,0.0,9.0,4.6,-3.0,88,86,82,30.35,30.09,13,4,0,0.00
2013-2-17,30.0,20.7,7.0,27.0,17.5,4.0,90,87,84,30.09,29.55,18,11,0,0.00
2013-2-18,33.0,12.8,-3.0,31.0,9.3,-7.0,93,85,78,30.08,29.53,21,12,0,0.00
2013-2-19,-2.0,-7.8,-14.0,-6.0,-12.5,-19.0,83,79,76,30.56,30.06,18,12,0,0.00
2013-2-20,5.0,-5.0,-19.0,-1.0,-10.7,-24.0,92,76,71,30.60,30.47,9,2,0,0.00
2013-2-21,20.0,11.1,2.0,13.0,3.9,-4.0,79,72,63,30.50,30.16,10,2,0,0.00
2013-2-22,20.0,16.7,11.0,17.0,13.4,7.0,90,87,76,30.16,29.95,10,4,0,0.00
2013-2-23,24.0,13.2,4.0,20.0,10.2,1.0,90,88,83,30.01,29.92,4,0,0,0.00
2013-2-24,23.0,11.5,0.0,17.0,7.3,-3.0,90,83,73,30.15,30.01,6,1,0,0.00
2013-2-25,26.0,18.0,11.0,22.0,15.5,8.0,93,90,85,30.16,30.08,5,1,0,0.00
2013-2-26,25.0,19.2,14.0,23.0,17.2,12.0,93,92,90,30.10,30.03,8,2,0,0.00
2013-2-27,22.0,15.8,9.0,20.0,13.5,6.0,93,91,88,30.18,30.04,16,7,0,0.00
2013-2-28,25.0,20.8,15.0,21.0,17.9,13.0,91,88,83,30.31,30.18,5,2,0,0.00
2013-3-1,26.0,16.8,8.0,17.0,12.2,5.0,90,82,66,30.44,30.30,7,2,0,0.00
2013-3-2,23.0,13.4,0.0,16.0,8.9,-3.0,90,82,73,30.41,30.14,9,4,0,0.00
2013-3-3,28.0,22.2,14.0,22.0,16.8,11.0,88,79,68,30.15,29.90,23,12,0,0.00
2013-3-4,24.0,22.8,22.0,22.0,20.7,19.0,93,92,89,29.98,29.85,22,15,0,0.00
2013-3-5,26.0,21.6,16.0,23.0,19.4,14.0,92,91,88,30.40,29.96,10,4,0,0.00
2013-3-6,24.0,18.3,15.0,18.0,14.6,13.0,90,85,74,30.48,30.36,5,2,0,0.00
2013-3-7,25.0,18.7,14.0,20.0,15.2,12.0,90,86,78,30.38,30.22,22,11,0,0.00
2013-3-8,33.0,23.0,13.0,29.0,18.9,11.0,93,84,73,30.30,30.03,7,2,0,0.00
2013-3-9,33.0,30.6,24.0,32.0,29.3,22.0,95,95,93,30.04,29.72,8,0,0,0.00
2013-3-10,24.0,20.4,12.0,22.0,17.8,8.0,93,89,85,30.13,29.91,9,4,0,0.00
2013-3-11,24.0,10.9,0.0,19.0,7.0,-3.0,87,83,76,30.07,29.89,8,2,0,0.00
2013-3-12,25.0,18.9,14.0,22.0,15.5,11.0,90,86,80,30.33,29.91,14,8,0,0.00
2013-3-13,24.0,14.7,4.0,18.0,9.9,1.0,97,81,66,30.45,30.19,9,3,0,0.00
2013-3-14,38.0,28.3,21.0,29.0,23.7,18.0,90,83,70,30.19,30.04,16,3,0,0.00
2013-3-15,32.0,28.2,23.0,29.0,25.6,21.0,94,90,83,30.05,29.86,7,2,0,0.00
2013-3-16,24.0,7.5,-1.0,22.0,3.6,-5.0,92,84,76,30.36,29.99,8,4,0,0.00
2013-3-17,24.0,10.9,0.0,22.0,6.1,-5.0,93,80,73,30.36,29.71,27,12,0,0.00
2013-3-18,31.0,15.6,6.0,30.0,12.7,2.0,95,88,82,30.00,29.53,24,18,0,0.00
2013-3-19,12.0,5.8,-1.0,6.0,-0.0,-6.0,90,76,67,30.38,30.00,15,10,0,0.00
2013-3-20,13.0,5.3,-2.0,5.0,-0.3,-6.0,82,77,67,30.41,30.24,13,8,0,0.00
2013-3-21,21.0,9.1,-3.0,10.0,2.3,-7.0,85,74,60,30.25,30.13,1,0,0,0.00
2013-3-22,20.0,11.7,1.0,13.0,6.4,-2.0,86,79,68,30.18,30.13,5,1,0,0.00
2013-3-23,22.0,15.5,8.0,16.0,11.1,5.0,88,82,74,30.25,30.16,9,4,0,0.00
2013-3-24,31.0,19.4,11.0,27.0,15.9,8.0,90,86,72,30.22,30.11,8,6,0,0.00
2013-3-25,26.0,22.5,15.0,21.0,18.2,11.0,89,84,77,30.36,30.18,11,7,0,0.00
2013-3-26,27.0,15.2,6.0,20.0,11.3,3.0,90,84,74,30.39,30.33,8,4,0,0.00
2013-3-27,35.0,24.0,11.0,26.0,18.2,8.0,91,79,67,30.37,30.32,11,3,0,0.00
2013-3-28,39.0,31.9,24.0,31.0,25.8,19.0,85,78,71,30.34,30.24,13,5,0,0.00
2013-3-29,42.0,36.3,30.0,37.0,32.2,27.0,93,85,76,30.24,29.93,9,4,0,0.00
2013-3-30,41.0,34.6,31.0,38.0,31.1,-99.9,95,90,83,29.95,29.86,12,6,0,0.00
2013-3-31,33.0,26.8,18.0,31.0,21.4,12.0,95,80,68,30.22,29.86,12,8,0,0.00
2013-4-1,26.0,19.1,12.0,18.0,12.9,8.0,86,77,66,30.38,30.22,9,4,0,0.00
2013-4-2,33.0,23.6,16.0,20.0,16.4,13.0,88,75,53,30.40,30.32,5,1,0,0.00
2013-4-3,50.0,34.3,19.0,40.0,27.3,15.0,86,76,66,30.39,29.93,20,9,0,0.00
2013-4-4,45.0,32.5,25.0,34.0,26.7,19.0,87,79,65,30.25,29.98,11,6,0,0.00
2013-4-5,35.0,28.4,21.0,30.0,23.9,17.0,92,83,68,30.26,29.78,20,9,0,0.00
2013-4-6,40.0,36.0,31.0,35.0,31.7,29.0,91,84,78,29.83,29.57,18,6,0,0.00
2013-4-7,41.0,35.0,30.0,37.0,31.8,28.0,94,88,77,29.92,29.74,11,3,0,0.00
2013-4-8,41.0,36.6,30.0,37.0,33.8,25.0,94,90,84,30.12,29.72,8,3,0,0.00
2013-4-9,32.0,26.0,21.0,25.0,19.2,14.0,84,75,59,30.26,30.09,9,6,0,0.00
2013-4-10,38.0,33.4,29.0,24.0,21.1,19.0,80,61,49,30.27,29.95,7,2,0,0.00
2013-4-11,33.0,30.1,27.0,30.0,26.8,22.0,93,88,64,29.98,29.74,12,4,0,0.00
2013-4-12,32.0,28.4,26.0,27.0,24.8,23.0,93,86,73,29.91,29.78,8,3,0,0.00
2013-4-13,36.0,29.1,25.0,26.0,24.3,23.0,93,83,65,29.93,29.88,8,3,0,0.00
2013-4-14,32.0,29.2,26.0,30.0,26.0,23.0,94,88,79,29.92,29.38,21,9,0,0.00
2013-4-15,36.0,32.4,30.0,31.0,28.7,26.0,95,87,78,30.02,29.34,12,4,0,0.00
2013-4-16,35.0,30.1,25.0,28.0,25.3,22.0,89,82,71,30.36,30.01,11,4,0,0.00
2013-4-17,39.0,33.7,29.0,31.0,28.7,26.0,93,82,71,30.37,30.06,5,2,0,0.00
2013-4-18,32.0,30.7,28.0,32.0,29.1,27.0,100,94,93,30.05,29.74,8,4,0,0.00
2013-4-19,33.0,27.9,24.0,27.0,24.1,20.0,95,86,69,30.08,29.71,9,4,0,0.00
2013-4-20,37.0,29.2,20.0,26.0,21.4,17.0,88,74,51,30.27,30.08,12,3,0,0.00
2013-4-21,43.0,35.3,29.0,37.0,31.9,26.0,93,87,77,30.25,30.00,21,11,0,0.00
2013-4-22,32.0,29.8,27.0,29.0,26.5,23.0,93,88,82,30.30,30.17,8,5,0,0.00
2013-4-23,37.0,28.0,19.0,26.0,21.4,17.0,91,77,59,30.30,30.09,9,5,0,0.00
2013-4-24,42.0,34.3,29.0,35.0,28.0,23.0,94,78,58,30.09,29.93,15,7,0,0.00
2013-4-25,51.0,37.5,26.0,37.0,28.8,22.0,87,72,54,30.19,29.97,21,6,0,0.00
2013-4-26,66.0,51.7,37.0,47.0,39.0,33.0,85,64,38,30.10,29.87,13,3,0,0.00
2013-4-27,76.0,59.2,41.0,46.0,39.4,33.0,73,51,27,30.10,29.74,15,7,0,0.00
2013-4-28,70.0,56.3,46.0,50.0,44.8,35.0,82,66,44,29.79,29.61,11,5,0,0.00
2013-4-29,73.0,54.4,34.0,48.0,36.2,25.0,84,54,23,29.84,29.39,12,4,0,0.00
2013-4-30,61.0,55.9,43.0,54.0,41.6,29.0,87,61,32,30.00,29.22,17,10,0,0.00
2013-5-1,42.0,35.7,31.0,31.0,24.8,20.0,72,64,55,30.58,29.99,10,6,0,0.00
2013-5-2,43.0,34.2,27.0,26.0,24.3,22.0,87,68,49,30.68,30.52,12,4,0,0.00
2013-5-3,49.0,37.0,25.0,26.0,23.0,20.0,81,59,37,30.52,30.21,8,3,0,0.00
2013-5-4,42.0,37.7,35.0,36.0,32.5,24.0,93,82,49,30.22,30.17,7,4,0,0.00
2013-5-5,49.0,41.8,36.0,43.0,38.3,34.0,94,88,79,30.22,30.12,7,2,0,0.00
2013-5-6,71.0,54.1,40.0,50.0,44.4,38.0,95,73,47,30.13,29.99,6,3,0,0.00
2013-5-7,78.0,63.6,45.0,50.0,45.1,41.0,89,56,30,30.02,29.86,10,3,0,0.00
2013-5-8,64.0,59.6,56.0,56.0,51.4,46.0,89,75,53,29.98,29.88,9,2,0,0.00
2013-5-9,67.0,56.3,48.0,52.0,48.1,38.0,92,75,55,30.11,29.96,8,4,0,0.00
2013-5-10,68.0,51.6,37.0,49.0,31.7,-99.9,74,52,26,30.14,29.85,13,4,0,0.00
2013-5-11,51.0,42.9,36.0,34.0,24.1,-99.9,76,51,30,30.22,30.01,14,8,0,0.00
2013-5-12,60.0,45.8,30.0,26.0,21.3,17.0,61,40,24,30.25,30.05,8,3,0,0.00
2013-5-13,89.0,63.6,44.0,51.0,36.9,24.0,48,38,22,30.05,29.56,21,9,0,0.00
2013-5-14,90.0,72.3,54.0,54.0,44.9,34.0,66,41,17,29.72,29.42,23,8,0,0.00
2013-5-15,80.0,67.2,51.0,48.0,44.5,39.0,71,46,28,29.85,29.72,11,4,0,0.00
2013-5-16,82.0,64.6,55.0,45.0,24.4,-99.9,54,37,25,29.85,29.74,15,4,0,0.00
2013-5-17,68.0,61.1,56.0,57.0,44.0,-99.9,92,66,31,29.85,29.79,15,7,0,0.00
2013-5-18,84.0,68.0,56.0,66.0,60.7,54.0,94,80,48,29.83,29.65,15,7,0,0.00
2013-5-19,77.0,67.0,60.0,65.0,61.5,58.0,95,83,62,29.65,29.47,20,7,0,0.00
2013-5-20,66.0,61.1,56.0,62.0,57.5,55.0,96,88,72,29.48,29.37,18,5,0,0.00
2013-5-21,60.0,52.3,49.0,56.0,50.0,46.0,94,92,87,29.74,29.43,8,4,0,0.00
2013-5-22,58.0,49.9,45.0,51.0,46.3,43.0,93,88,75,30.03,29.73,9,4,0,0.00
2013-5-23,66.0,54.9,45.0,45.0,40.8,34.0,88,62,34,30.28,30.03,7,2,0,0.00
2013-5-24,65.0,53.7,43.0,50.0,40.8,33.0,83,63,40,30.28,30.09,16,7,0,0.00
2013-5-25,59.0,55.1,52.0,52.0,49.3,47.0,89,81,76,30.13,30.06,19,15,0,0.00
2013-5-26,56.0,52.4,49.0,50.0,46.8,44.0,88,81,75,30.12,29.96,22,11,0,0.00
2013-5-27,64.0,57.1,52.0,56.0,51.7,49.0,93,82,72,29.99,29.76,13,5,0,0.00
2013-5-28,68.0,58.5,54.0,59.0,54.4,52.0,94,87,72,29.77,29.64,9,3,0,0.00
2013-5-29,71.0,62.0,54.0,67.0,58.7,52.0,96,89,73,29.73,29.49,23,8,0,0.00
2013-5-30,79.0,68.2,60.0,64.0,61.0,56.0,93,79,53,29.49,29.36,22,10,0,0.00
2013-5-31,63.0,60.1,56.0,60.0,54.1,51.0,93,80,72,29.45,29.31,23,10,0,0.00
2013-6-1,58.0,54.1,51.0,55.0,49.4,43.0,92,84,72,29.99,29.45,12,6,0,0.00
2013-6-2,65.0,55.2,43.0,44.0,41.0,39.0,92,61,39,30.09,29.98,6,2,0,0.00
2013-6-3,65.0,57.0,47.0,50.0,44.4,40.0,80,63,46,30.01,29.88,13,4,0,0.00
2013-6-4,60.0,56.2,52.0,57.0,52.3,45.0,94,87,60,29.95,29.85,21,8,0,0.00
2013-6-5,67.0,58.5,53.0,56.0,51.5,49.0,95,78,54,29.98,29.91,6,2,0,0.00
2013-6-6,62.0,55.5,50.0,51.0,49.1,47.0,91,79,67,30.02,29.96,4,1,0,0.00
2013-6-7,72.0,58.7,47.0,51.0,48.4,45.0,93,71,45,30.02,29.85,8,2,0,0.00
2013-6-8,68.0,60.0,53.0,54.0,51.3,48.0,86,74,55,29.85,29.78,14,7,0,0.00
2013-6-9,60.0,57.4,56.0,57.0,55.0,53.0,95,92,79,29.81,29.71,8,3,0,0.00
2013-6-10,77.0,62.9,50.0,62.0,56.8,49.0,96,82,57,29.84,29.73,8,1,0,0.00
2013-6-11,75.0,65.9,60.0,63.0,58.0,53.0,94,77,48,29.88,29.73,6,1,0,0.00
2013-6-12,71.0,65.8,59.0,58.0,54.2,51.0,82,67,55,29.98,29.71,9,3,0,0.00
2013-6-13,81.0,68.1,52.0,56.0,52.6,48.0,87,61,37,30.08,29.96,5,1,0,0.00
2013-6-14,80.0,71.1,62.0,65.0,59.2,54.0,80,67,53,30.00,29.71,20,10,0,0.00
2013-6-15,81.0,71.6,62.0,63.0,53.2,42.0,93,57,27,29.87,29.74,9,3,0,0.00
2013-6-16,84.0,72.6,60.0,59.0,50.9,45.0,66,48,27,29.86,29.77,11,5,0,0.00
2013-6-17,79.0,69.7,59.0,59.0,53.9,50.0,82,58,42,29.95,29.82,10,4,0,0.00
2013-6-18,82.0,68.0,55.0,59.0,53.2,47.0,81,61,39,30.04,29.91,6,2,0,0.00
2013-6-19,89.0,75.5,62.0,61.0,57.6,54.0,84,57,31,29.95,29.78,8,4,0,0.00
2013-6-20,86.0,72.1,65.0,70.0,64.3,58.0,94,78,55,29.90,29.72,26,7,0,0.00
2013-6-22,80.0,74.4,68.0,67.0,65.3,63.0,90,74,61,29.87,29.75,11,2,0,0.00
2013-6-23,79.0,71.0,64.0,67.0,62.8,57.0,95,77,51,29.79,29.54,16,6,0,0.00
2013-6-24,81.0,72.0,60.0,70.0,64.2,57.0,92,77,63,29.81,29.69,10,3,0,0.00
2013-6-25,89.0,76.2,65.0,74.0,69.1,63.0,95,80,60,29.70,29.56,11,6,0,0.00
2013-6-26,85.0,76.0,66.0,72.0,65.5,61.0,90,71,47,29.72,29.54,13,4,0,0.00
2013-6-27,84.0,75.4,67.0,65.0,60.5,55.0,86,62,39,29.81,29.72,12,6,0,0.00
2013-6-28,79.0,71.7,65.0,61.0,57.9,55.0,74,62,46,29.83,29.79,13,8,0,0.00
2013-6-29,82.0,70.7,61.0,61.0,57.2,52.0,92,65,39,29.95,29.79,9,4,0,0.00
2013-6-30,84.0,72.1,58.0,57.0,52.9,47.0,87,54,29,30.09,29.96,4,0,0,0.00
2013-7-1,89.0,76.7,62.0,61.0,55.3,48.0,82,51,26,30.15,30.07,2,0,0,0.00
2013-7-2,89.0,76.2,63.0,61.0,57.6,52.0,82,56,29,30.09,29.97,2,0,0,0.00
2013-7-3,88.0,76.1,63.0,60.0,55.9,50.0,78,53,29,29.98,29.83,7,2,0,0.00
2013-7-4,91.0,77.6,62.0,62.0,56.8,51.0,74,51,32,29.84,29.67,18,8,0,0.00
2013-7-5,91.0,79.0,68.0,66.0,61.9,57.0,69,57,40,29.70,29.66,9,4,0,0.00
2013-7-6,80.0,74.5,69.0,71.0,66.6,63.0,89,77,63,29.72,29.67,8,3,0,0.00
2013-7-7,92.0,78.6,69.0,73.0,67.9,59.0,94,72,46,29.86,29.70,8,2,0,0.00
2013-7-8,90.0,74.8,62.0,68.0,62.1,59.0,90,67,40,29.93,29.83,4,1,0,0.00
2013-7-9,81.0,72.9,64.0,69.0,65.4,58.0,95,78,61,29.95,29.65,13,6,0,0.00
2013-7-10,80.0,67.7,56.0,60.0,54.5,-99.9,92,68,44,30.05,29.93,8,2,0,0.00
2013-7-11,86.0,73.1,60.0,67.0,60.8,55.0,86,67,50,30.02,29.81,16,7,0,0.00
2013-7-12,92.0,78.9,67.0,73.0,66.2,60.0,79,66,53,29.81,29.67,21,11,0,0.00
2013-7-13,83.0,75.6,72.0,72.0,68.2,66.0,84,78,68,29.92,29.75,9,4,0,0.00
2013-7-14,74.0,68.4,65.0,68.0,65.7,64.0,96,91,75,30.11,29.90,11,3,0,0.00
2013-7-15,87.0,75.3,67.0,72.0,67.4,65.0,95,79,49,30.14,30.02,11,4,0,0.00
2013-7-16,89.0,79.3,69.0,71.0,68.5,66.0,93,71,48,30.10,30.03,12,6,0,0.00
2013-7-17,91.0,80.7,70.0,74.0,69.4,66.0,87,70,49,30.13,29.98,12,5,0,0.00
2013-7-18,92.0,82.3,73.0,74.0,71.1,68.0,87,70,49,29.98,29.63,13,7,0,0.00
2013-7-19,82.0,74.8,66.0,72.0,62.9,59.0,83,68,51,29.84,29.66,10,5,0,0.00
2013-7-20,79.0,68.3,63.0,65.0,60.2,-99.9,93,78,58,29.93,29.82,8,1,0,0.00
2013-7-21,85.0,73.0,63.0,69.0,63.5,57.0,85,73,54,29.88,29.64,9,3,0,0.00
2013-7-22,74.0,70.5,61.0,67.0,61.9,55.0,90,75,59,29.86,29.59,12,5,0,0.00
2013-7-23,77.0,65.9,53.0,58.0,54.9,51.0,93,70,46,29.98,29.85,5,1,0,0.00
2013-7-24,80.0,69.4,59.0,61.0,57.3,54.0,92,67,47,30.01,29.86,6,2,0,0.00
2013-7-25,78.0,68.0,61.0,65.0,60.1,53.0,92,77,56,29.95,29.84,6,2,0,0.00
2013-7-26,68.0,60.5,53.0,54.0,51.1,48.0,90,73,51,30.10,29.91,12,6,0,0.00
2013-7-27,69.0,59.0,49.0,49.0,46.7,45.0,89,66,43,30.11,29.95,8,3,0,0.00
2013-7-28,75.0,62.2,49.0,54.0,48.5,44.0,84,63,43,30.01,29.97,8,2,0,0.00
2013-7-29,76.0,62.4,53.0,61.0,53.9,49.0,92,76,46,30.04,29.99,9,3,0,0.00
2013-7-30,76.0,67.1,60.0,63.0,60.4,57.0,94,80,63,30.03,29.96,7,2,0,0.00
2013-7-31,76.0,67.5,60.0,62.0,57.1,50.0,92,72,44,30.04,29.97,11,4,0,0.00
2013-8-1,79.0,69.2,56.0,57.0,53.6,49.0,83,59,42,29.99,29.82,7,1,0,0.00
2013-8-2,76.0,66.6,55.0,58.0,53.7,49.0,87,65,40,30.02,29.84,4,1,0,0.00
2013-8-3,77.0,65.4,52.0,56.0,50.9,47.0,88,62,36,30.16,30.01,6,2,0,0.00
2013-8-4,75.0,64.5,55.0,58.0,52.5,49.0,83,66,45,30.19,29.89,8,2,0,0.00
2013-8-5,74.0,66.2,61.0,65.0,61.1,57.0,95,84,65,29.97,29.76,8,2,0,0.00
2013-8-6,81.0,66.6,57.0,67.0,60.3,55.0,94,82,59,29.80,29.61,11,4,0,0.00
2013-8-7,76.0,66.1,56.0,61.0,55.1,51.0,95,71,45,29.96,29.79,7,2,0,0.00
2013-8-8,78.0,66.8,60.0,61.0,56.8,53.0,85,71,52,30.00,29.93,6,1,0,0.00
2013-8-9,72.0,63.4,53.0,55.0,52.1,49.0,91,68,49,30.10,29.96,10,3,0,0.00
2013-8-10,78.0,65.0,53.0,58.0,54.2,50.0,93,70,46,30.15,30.01,5,0,0,0.00
2013-8-11,80.0,70.0,60.0,63.0,59.0,55.0,89,70,50,30.01,29.96,3,1,0,0.00
2013-8-12,78.0,66.4,55.0,59.0,55.1,52.0,92,70,43,30.05,29.99,5,1,0,0.00
2013-8-13,78.0,64.8,51.0,55.0,47.6,-99.9,89,59,38,30.16,30.05,4,1,0,0.00
2013-8-14,78.0,65.5,53.0,55.0,49.7,-99.9,89,64,40,30.14,30.02,5,2,0,0.00
2013-8-15,78.0,60.4,54.0,60.0,39.3,-99.9,91,65,44,30.07,30.01,4,1,0,0.00
2013-8-16,77.0,65.2,53.0,61.0,52.2,-99.9,94,70,47,30.11,30.06,13,5,0,0.00
2013-8-17,82.0,67.4,55.0,65.0,57.1,-99.9,92,73,56,30.08,29.97,16,9,0,0.00
2013-8-18,82.0,70.1,59.0,66.0,60.7,55.0,89,73,57,30.01,29.85,19,10,0,0.00
2013-8-19,88.0,71.2,64.0,73.0,54.2,-99.9,89,73,58,29.91,29.75,11,4,0,0.00
2013-8-20,91.0,79.3,68.0,76.0,69.3,-99.9,95,77,53,29.78,29.69,11,5,0,0.00
2013-8-21,90.0,77.1,70.0,73.0,66.7,58.0,96,74,35,29.96,29.69,8,2,0,0.00
2013-8-22,83.0,74.3,63.0,58.0,54.2,51.0,71,52,34,30.10,29.96,3,1,0,0.00
2013-8-23,85.0,72.8,59.0,70.0,61.6,51.0,87,68,53,30.06,29.88,13,6,0,0.00
2013-8-24,91.0,79.0,70.0,76.0,68.7,-99.9,93,74,53,29.89,29.72,20,12,0,0.00
2013-8-25,93.0,83.6,73.0,78.0,73.8,69.0,89,74,55,29.84,29.77,12,7,0,0.00
2013-8-26,93.0,84.2,75.0,77.0,74.6,72.0,91,74,56,29.84,29.69,15,4,0,0.00
2013-8-27,91.0,80.6,73.0,77.0,73.7,70.0,92,81,53,29.77,29.67,5,1,0,0.00
2013-8-28,88.0,82.1,76.0,74.0,72.4,68.0,90,74,57,29.91,29.86,9,3,0,0.00
2013-8-29,93.0,81.0,72.0,75.0,72.0,69.0,96,76,51,29.88,29.72,16,5,0,0.00
2013-8-30,86.0,74.8,66.0,69.0,65.8,64.0,95,75,50,29.89,29.79,4,1,0,0.00
2013-8-31,90.0,71.1,64.0,72.0,62.9,-99.9,95,80,45,29.84,29.61,8,3,0,0.00
2013-9-1,69.0,60.9,55.0,64.0,55.5,51.0,93,82,74,29.99,29.75,9,4,0,0.00
2013-9-2,73.0,59.8,47.0,55.0,51.0,45.0,95,75,47,30.10,29.99,2,0,0,0.00
2013-9-3,80.0,64.9,50.0,65.0,56.6,48.0,92,76,49,30.02,29.93,7,2,0,0.00
2013-9-4,84.0,72.0,60.0,67.0,62.7,58.0,95,74,53,30.08,29.95,3,0,0,0.00
2013-9-5,86.0,72.8,62.0,68.0,62.3,55.0,83,70,54,30.11,29.97,10,5,0,0.00
2013-9-6,93.0,77.4,66.0,73.0,67.1,62.0,87,72,49,29.97,29.76,10,4,0,0.00
2013-9-7,92.0,76.8,67.0,73.0,66.4,-99.9,93,75,50,29.92,29.79,5,1,0,0.00
2013-9-8,74.0,65.4,61.0,68.0,59.7,55.0,91,82,68,29.96,29.80,7,3,0,0.00
2013-9-9,84.0,71.7,64.0,73.0,66.6,61.0,95,85,67,29.79,29.58,10,4,0,0.00
2013-9-10,76.0,69.5,65.0,65.0,62.3,59.0,94,79,57,29.92,29.72,9,2,0,0.00
2013-9-11,82.0,70.4,60.0,63.0,54.9,47.0,88,62,34,30.08,29.92,11,4,0,0.00
2013-9-12,73.0,61.5,49.0,54.0,49.6,46.0,90,67,45,30.22,30.09,7,2,0,0.00
2013-9-13,73.0,60.7,48.0,50.0,47.7,44.0,89,65,41,30.22,29.98,10,4,0,0.00
2013-9-14,60.0,53.3,48.0,55.0,48.1,-99.9,95,86,71,29.99,29.80,11,5,0,0.00
2013-9-15,66.0,56.9,49.0,55.0,51.7,45.0,95,83,62,30.28,29.85,6,2,0,0.00
2013-9-16,67.0,55.6,46.0,49.0,44.6,39.0,92,70,37,30.36,30.14,10,5,0,0.00
2013-9-17,62.0,55.5,49.0,56.0,51.9,46.0,94,88,81,30.14,29.83,15,10,0,0.00
2013-9-18,74.0,60.7,57.0,69.0,59.3,56.0,96,94,84,29.83,29.53,9,6,0,0.00
2013-9-19,74.0,66.4,56.0,69.0,59.1,51.0,94,79,48,29.80,29.48,11,6,0,0.00
2013-9-20,59.0,53.4,48.0,52.0,47.9,43.0,94,82,60,29.94,29.79,12,6,0,0.00
2013-9-21,68.0,52.1,40.0,48.0,41.9,-99.9,93,72,47,30.01,29.85,4,0,0,0.00
2013-9-22,82.0,63.1,48.0,59.0,51.2,44.0,89,67,39,29.86,29.65,19,12,0,0.00
2013-9-23,76.0,64.7,57.0,55.0,52.8,50.0,83,67,46,29.79,29.68,19,13,0,0.00
2013-9-24,76.0,61.9,54.0,56.0,52.5,49.0,86,73,48,29.89,29.79,9,3,0,0.00
2013-9-25,75.0,63.2,52.0,58.0,52.6,49.0,92,71,46,29.87,29.71,16,8,0,0.00
2013-9-26,84.0,68.5,58.0,61.0,57.0,52.0,83,68,46,29.76,29.64,21,14,0,0.00
2013-9-27,77.0,67.7,54.0,66.0,60.6,50.0,91,79,62,29.72,29.62,18,9,0,0.00
2013-9-28,60.0,53.0,50.0,52.0,45.1,-99.9,94,78,55,29.86,29.55,13,6,0,0.00
2013-9-29,78.0,59.5,43.0,50.0,45.4,40.0,89,63,33,29.86,29.58,13,6,0,0.00
2013-9-30,81.0,66.4,53.0,55.0,50.0,45.0,75,57,37,29.58,29.46,12,5,0,0.00
2013-10-1,65.0,60.2,57.0,39.0,37.8,37.0,50,44,37,29.93,29.85,6,4,0,0.00
2013-10-2,68.0,53.8,45.0,50.0,44.0,38.0,91,72,36,29.96,29.80,15,4,0,0.00
2013-10-3,55.0,51.4,48.0,51.0,49.1,46.0,94,92,86,29.98,29.85,7,3,0,0.00
2013-10-4,55.0,52.6,51.0,51.0,49.5,48.0,93,89,83,29.98,29.77,15,7,0,0.00
2013-10-5,52.0,49.1,43.0,51.0,43.8,40.0,95,83,65,29.77,29.67,14,7,0,0.00
2013-10-6,55.0,47.7,44.0,47.0,42.8,39.0,95,84,55,29.87,29.71,12,6,0,0.00
2013-10-7,69.0,54.2,41.0,47.0,40.7,38.0,90,64,33,29.96,29.84,8,3,0,0.00
2013-10-8,77.0,62.0,49.0,49.0,46.0,41.0,78,58,35,29.85,29.61,21,12,0,0.00
2013-10-9,74.0,62.1,50.0,53.0,49.5,44.0,82,65,46,29.91,29.75,9,4,0,0.00
2013-10-10,81.0,64.5,54.0,56.0,51.1,47.0,80,64,40,29.90,29.67,19,10,0,0.00
2013-10-11,67.0,60.3,51.0,59.0,52.4,44.0,90,76,56,29.70,29.37,23,14,0,0.00
2013-10-12,54.0,47.6,42.0,43.0,38.0,-99.9,89,72,52,30.19,29.57,15,9,0,0.00
2013-10-13,58.0,46.9,37.0,39.0,34.6,32.0,83,64,40,30.41,30.19,5,1,0,0.00
2013-10-14,47.0,45.8,43.0,44.0,39.5,35.0,92,79,65,30.34,29.84,15,7,0,0.00
2013-10-15,47.0,44.4,42.0,45.0,42.3,38.0,94,92,89,29.97,29.70,12,8,0,0.00
2013-10-16,57.0,43.4,31.0,40.0,35.4,29.0,93,75,43,30.00,29.83,9,3,0,0.00
2013-10-17,45.0,39.9,37.0,42.0,36.5,33.0,93,88,77,29.96,29.78,12,4,0,0.00
2013-10-18,48.0,38.2,30.0,36.0,31.9,27.0,91,79,53,30.01,29.83,7,3,0,0.00
2013-10-19,40.0,36.7,32.0,36.0,30.2,-99.9,93,80,60,29.82,29.70,12,4,0,0.00
2013-10-20,39.0,35.4,32.0,36.0,31.9,25.0,93,87,72,29.97,29.61,12,6,0,0.00
2013-10-21,38.0,32.2,29.0,26.0,23.9,22.0,82,71,58,30.00,29.96,9,4,0,0.00
2013-10-22,37.0,32.2,27.0,30.0,26.0,22.0,88,78,62,30.09,29.99,8,3,0,0.00
2013-10-23,38.0,33.2,30.0,28.0,24.9,20.0,85,72,55,30.18,30.04,11,4,0,0.00
2013-10-24,38.0,33.8,29.0,31.0,28.6,26.0,91,81,72,30.34,30.18,9,4,0,0.00
2013-10-25,60.0,48.5,25.0,45.0,37.2,21.0,85,66,52,30.21,29.80,15,10,0,0.00
2013-10-26,45.0,36.3,31.0,33.0,26.4,-99.9,79,69,58,30.16,29.89,13,6,0,0.00
2013-10-27,53.0,38.3,28.0,35.0,28.8,24.0,84,70,48,30.20,29.79,11,6,0,0.00
2013-10-28,41.0,32.4,26.0,28.0,21.6,-99.9,82,68,46,30.48,30.19,7,2,0,0.00
2013-10-29,34.0,32.0,29.0,32.0,28.2,22.0,91,86,70,30.44,30.11,4,1,0,0.00
2013-10-30,41.0,37.0,34.0,39.0,35.0,31.0,95,93,90,30.11,29.71,6,1,0,0.00
2013-10-31,39.0,36.5,34.0,37.0,34.9,32.0,95,94,91,29.72,29.44,6,2,0,0.00
2013-11-1,45.0,39.3,33.0,40.0,35.7,31.0,92,87,77,29.92,29.47,11,6,0,0.00
2013-11-2,50.0,38.4,31.0,38.0,31.5,-99.9,92,80,59,30.08,29.92,7,2,0,0.00
2013-11-3,56.0,44.6,35.0,36.0,33.5,31.0,87,67,41,30.02,29.69,29,16,0,0.00
2013-11-4,47.0,39.7,33.0,37.0,31.9,26.0,87,74,58,30.12,29.68,15,7,0,0.00
2013-11-5,36.0,32.0,29.0,26.0,22.9,20.0,77,69,55,30.27,30.11,7,2,0,0.00
2013-11-6,42.0,32.4,23.0,28.0,24.0,19.0,88,72,51,30.17,30.11,8,4,0,0.00
2013-11-7,41.0,30.6,24.0,28.0,23.8,21.0,90,77,51,30.27,30.17,9,4,0,0.00
2013-11-8,42.0,33.7,25.0,38.0,27.5,21.0,91,79,56,30.16,29.59,23,10,0,0.00
2013-11-9,42.0,36.7,34.0,38.0,28.1,-99.9,89,74,60,30.28,29.67,22,14,0,0.00
2013-11-10,35.0,31.1,25.0,28.0,25.3,20.0,88,79,70,30.33,30.13,13,6,0,0.00
2013-11-11,24.0,15.2,9.0,17.0,7.1,3.0,79,70,61,30.84,30.26,11,7,0,0.00
2013-11-12,34.0,19.3,6.0,14.0,8.7,2.0,86,66,38,30.85,30.40,12,6,0,0.00
2013-11-13,57.0,36.5,20.0,36.0,26.0,13.0,85,67,45,30.38,29.86,14,7,0,0.00
2013-11-14,48.0,40.5,35.0,37.0,33.2,30.0,84,76,61,29.85,29.76,12,5,0,0.00
2013-11-15,55.0,39.9,25.0,39.0,32.5,23.0,92,76,52,29.79,29.49,15,8,0,0.00
2013-11-16,44.0,39.2,35.0,43.0,35.5,-99.9,96,90,79,29.48,29.21,17,6,0,0.00
2013-11-17,41.0,34.0,28.0,40.0,31.1,22.0,96,89,79,29.92,29.28,24,12,0,0.00
2013-11-18,33.0,26.1,21.0,23.0,20.1,18.0,88,78,65,30.23,29.93,18,6,0,0.00
2013-12-14,6.0,2.4,-6.0,3.0,-3.7,-99.9,92,79,75,30.38,30.22,8,3,0,0.00
2013-12-15,3.0,-1.4,-6.0,-1.0,-6.6,-12.0,83,78,71,30.27,30.15,9,2,0,0.00
2013-12-16,32.0,14.6,3.0,27.0,10.4,-1.0,87,83,78,30.14,29.96,14,8,0,0.00
2013-12-17,31.0,20.1,8.0,26.0,15.1,5.0,89,81,76,30.13,29.96,21,9,0,0.00
2013-12-18,35.0,22.3,10.0,27.0,16.6,6.0,88,79,70,30.03,29.66,16,6,0,0.00
2013-12-19,10.0,5.3,0.0,6.0,0.7,-4.0,86,81,74,30.19,29.94,13,5,0,0.00
2013-12-20,8.0,1.2,-6.0,5.0,-2.8,-10.0,86,83,80,30.17,29.95,7,2,0,0.00